Flag for Germany Weather past 2 weeks in Schwerin, Mecklenburg-Western Pomerania, Germany

Now
52 °F

Overcast.


Feels Like: 51 °F
Forecast: 50 / 64 °F
Wind: 5 mph from Southwest

Location: Schwerin

Current Time: Aug 23, 2014 at 4:25:37 AM

Latest Report: Aug 23, 2014 at 4:00 AM


Visibility: 13 mi

Pressure: 29.82 "Hg

Humidity: 86%

Dew point: 48 °F

Location of SchwerinLocation

Historic Weather in Schwerin — Graph

°F

Schwerin temperature yesterday

Maximum temperature yesterday: 64 °F (at 4:00 PM)
Minimum temperature yesterday: 51 °F (at 6:00 AM)
Average temperature yesterday: 58 °F

Past Weeks' High & Low Weather Summary

 TemperatureHumidityPressure
High77 °F (Aug 8, 3:00 PM)97% (Aug 8, 6:00 AM)30.00 "Hg (Aug 8, 6:00 AM)
Low47 °F (Aug 21, 5:00 AM)43% (Aug 8, 3:00 PM)29.50 "Hg (Aug 18, 12:00 PM)
Average61 °F74%29.80 "Hg
* Reported Aug 8 3:00 AM — Aug 23 3:00 AM, Schwerin, Weather by CustomWeather, © 2014

Note: Actual official high and low records may vary slightly from our data, if they occured in-between our weather recording intervals... More about our weather records

Advertising

Schwerin weather history for previous 24 hours

 ConditionsComfort  
Time TempWeatherWind HumidityBarometerVisibility
3:00 AM
Aug 23
53 °FOvercast.8 mph84%29.82 "Hg14 mi
2:00 AM54 °FOvercast.7 mph83%29.81 "Hg22 mi
1:00 AM54 °FOvercast.6 mph84%29.81 "Hg31 mi
12:00 AM55 °FOvercast.6 mph87%29.80 "Hg18 mi
11:00 PM
Aug 22
56 °FLight rain. Overcast.6 mph84%29.80 "Hg12 mi
10:00 PM56 °FLight rain. Overcast.6 mph82%29.81 "Hg9 mi
9:00 PM57 °FOvercast.3 mph79%29.80 "Hg22 mi
8:00 PM57 °FOvercast.5 mph78%29.80 "Hg19 mi
7:00 PM63 °FOvercast.6 mph54%29.79 "Hg34 mi
6:00 PM64 °FOvercast.7 mph50%29.80 "Hg40 mi
5:00 PM64 °FOvercast.8 mph49%29.81 "Hg19 mi
4:00 PM64 °FOvercast.9 mph49%29.82 "Hg25 mi
3:00 PM63 °FOvercast.7 mph53%29.83 "Hg34 mi
2:00 PM63 °FOvercast.7 mph52%29.85 "Hg22 mi
1:00 PM64 °FPartly sunny.8 mph51%29.85 "Hg17 mi
12:00 PM63 °FOvercast.7 mph54%29.85 "Hg19 mi
11:00 AM61 °FOvercast.6 mph61%29.87 "Hg9 mi
10:00 AM58 °FOvercast.6 mph71%29.87 "Hg10 mi
9:00 AM55 °FOvercast.5 mph77%29.88 "Hg10 mi
8:00 AM53 °FOvercast.5 mph79%29.88 "Hg9 mi
7:00 AM52 °FOvercast.5 mph79%29.88 "Hg7 mi
6:00 AM51 °FOvercast.2 mph80%29.88 "Hg6 mi
4:00 AM51 °FOvercast.3 mph82%29.91 "Hg7 mi
Weather by CustomWeather, © 2014

See weather overviewHow to use our weather pages